#timestamp,LO_Frequency,Hit,StdDev 
1574942415.4,286047002.3,N
1574942435.2,286047001.8,N
1574942455.0,286047004.2,N
1574942455.9,286047004.2,N
1574942475.8,286047001.4,N
1574942495.6,286047001.6,N
1574942515.4,286047003.8,N
1574942535.3,286047003.9,N
1574942555.1,286047001.4,N
1574942575.9,286047001.6,N
1574942595.7,286047002.1,N
1574942615.5,286047001.9,N
1574942635.4,286047001.3,N
1574942655.2,286047005.8,Y
1574942675.0,286047001.6,P
1574942675.9,286047001.6,P
1574942695.8,286047002.6,P
1574942715.6,286047002.8,Y
1574942735.5,286046996.5,P
1574942755.3,286046996.6,N
1574942775.1,286046999.2,N
1574942795.9,286046997.3,N
1574942815.7,286046996.9,N
1574942835.5,286046998.0,N
1574942855.4,286046995.9,N
1574942875.2,286046993.4,Y
1574942895.1,286046995.7,P
1574942896.0,286046995.7,P
1574942915.8,286046995.0,P
1574942935.6,286046996.0,Y
1574942955.5,286047001.1,P
1574942975.3,286046999.0,N
1574942995.2,286047001.1,N
1574943015.9,286047000.7,N
1574943035.7,286047000.6,N
1574943055.6,286047002.6,N
1574943075.4,286047000.5,N
1574943095.3,286046999.7,N
1574943115.1,286047000.1,N
1574943116.0,286047000.1,N
1574943135.8,286047002.4,N
1574943155.7,286046999.6,N
1574943175.5,286047002.7,N
1574943195.3,286046999.6,N
1574943215.2,286046996.5,N
1574943235.0,286046999.2,N
1574943235.9,286046999.2,N
1574943255.8,286046998.5,N
1574943275.6,286046998.8,N
1574943295.4,286046996.9,N
1574943315.3,286046995.0,N
1574943335.1,286046997.1,N
1574943355.9,286046995.4,N
1574943375.7,286046996.0,N
1574943395.5,286046997.1,N
1574943415.4,286046999.2,N
1574943435.2,286046995.0,N
1574943455.0,286046996.3,N
1574943455.9,286046996.3,N
1574943475.8,286046995.9,N
1574943495.6,286046994.5,N
1574943515.5,286046993.9,N
1574943535.3,286046993.7,N
1574943555.1,286046992.4,N
1574943575.9,286046992.1,N
1574943595.7,286046993.9,N
1574943615.5,286046993.8,N
1574943635.4,286046994.8,N
1574943655.2,286046993.5,N
1574943675.1,286046993.9,N
1574943676.0,286046993.9,N
1574943695.8,286046994.0,N
1574943715.6,286046991.7,Y
1574943735.5,286046997.9,P
1574943755.3,286046996.9,P
1574943775.1,286046997.1,P
1574943795.9,286046997.4,Y
1574943815.7,286047004.0,P
1574943835.6,286047001.7,N
1574943855.4,286047000.2,N
1574943875.2,286047002.5,N
1574943895.1,286047002.7,N
1574943896.0,286047002.7,N
1574943915.8,286047000.2,N
1574943935.7,286047000.9,N
1574943955.5,286047001.9,N
1574943975.3,286047001.9,N
1574943995.2,286047003.4,N
1574944015.0,286047001.5,N
1574944015.9,286047001.5,N
1574944035.7,286046999.9,N
1574944055.6,286047000.4,N
1574944075.4,286046999.9,N
1574944095.3,286047001.4,N
1574944115.1,286047001.5,N
1574944116.0,286047001.5,N
1574944135.8,286047002.0,N
1574944155.7,286047000.6,N
1574944175.5,286047001.9,N
1574944195.3,286047002.2,N
1574944215.2,286047002.3,N
1574944235.0,286047001.1,N
1574944235.9,286047001.1,N
1574944255.8,286047000.8,N
1574944275.6,286047000.6,N
1574944295.4,286046998.3,N
1574944315.3,286046999.0,N
1574944335.1,286047001.0,N
1574944355.8,286047000.1,N
1574944375.7,286047000.7,N
1574944395.5,286047000.0,N
1574944415.3,286047002.8,N
1574944435.2,286047003.7,Y
1574944455.0,286047002.8,P
1574944455.9,286047002.8,P
1574944475.8,286047001.2,N
1574944495.6,286047000.9,N
1574944515.4,286047002.3,N
1574944535.3,286047002.6,Y
1574944555.1,286047000.2,P
1574944575.9,286046998.5,N
1574944595.7,286046996.6,N
1574944615.5,286046996.7,N
1574944635.4,286046996.6,N
1574944655.2,286047000.5,N
1574944675.0,286046998.6,N
1574944675.9,286046998.6,N
1574944695.8,286046999.9,N
1574944715.6,286046999.9,N
1574944735.5,286047000.5,N
1574944755.3,286046999.6,N
1574944775.1,286047000.8,N
1574944795.9,286046998.4,N
1574944815.7,286046998.4,N
1574944835.5,286046996.6,N
1574944855.4,286046999.2,N
1574944875.2,286046996.6,N
1574944895.1,286046999.3,N
1574944896.0,286046999.3,N
1574944915.8,286046999.4,N
1574944935.6,286046999.0,N
1574944955.5,286046997.8,N
1574944975.3,286046997.8,N
1574944995.1,286046996.8,N
1574945015.9,286046997.1,N
1574945035.7,286046997.4,N
1574945055.6,286046996.9,N
1574945075.4,286046996.9,N
1574945095.2,286046999.3,N
1574945115.1,286046996.6,N
1574945116.0,286046996.6,N
1574945135.8,286046999.6,N
1574945155.7,286046999.3,N
1574945175.5,286046998.4,N
1574945195.3,286046998.7,N
1574945215.2,286047001.2,N
1574945235.0,286047001.2,N
1574945235.9,286047001.2,N
1574945255.7,286046999.1,N
1574945275.6,286047011.9,Y
1574945295.4,286046998.8,P
1574945315.3,286046999.1,P
1574945335.1,286046999.5,N
1574945336.0,286046999.5,N
1574945355.8,286046999.2,N
1574945375.7,286046995.5,Y
1574945395.5,286046996.7,P
1574945415.4,286046995.0,P
1574945435.2,286046996.5,N
1574945455.0,286046998.6,N
1574945455.9,286046998.6,N
1574945475.8,286046996.8,N
1574945495.6,286046996.7,N
1574945515.4,286046997.1,N
1574945535.3,286046999.1,N
1574945555.1,286046997.8,N
1574945575.9,286046997.7,N
1574945595.7,286046996.8,N
1574945615.5,286046997.5,N
1574945635.4,286046994.9,Y
1574945655.2,286046998.4,P
1574945675.0,286047000.5,N
1574945675.9,286047000.5,N
1574945695.8,286047002.8,N
1574945715.6,286047000.7,N
1574945735.5,286047002.2,N
1574945755.3,286047001.8,N
1574945775.1,286047004.4,N
1574945795.9,286047001.5,N
1574945815.7,286047002.3,N
1574945835.5,286047000.5,N
1574945855.4,286046998.1,N
1574945875.2,286047000.6,N
1574945895.1,286046999.8,N
1574945896.0,286046999.8,N
1574945915.8,286046999.8,N
1574945935.6,286047000.8,N
1574945955.5,286046998.6,N
1574945975.3,286047002.8,N
1574945995.1,286047001.6,N
